FENGYUN 1C DEB, 31428

Orbit data source: Space-Track

FENGYUN 1C DEB, 31428 is space debris in SSO originally from a launch on Mon, 10 May 1999 UTC launched from the Taiyaun Space Center, China (TSC). Fengyun 1C debris stems from the Chinese weather satellite Fengyun-1C, which was intentionally destroyed by a Chinese anti-satellite missile in 2007. This event dramatically increased the amount of space debris, with thousands of trackable fragments posing hazards to satellites and human spaceflight. The Fengyun 1C debris cloud has become a focal point in discussions about space sustainability and the need for international regulations to prevent the creation of new debris.

Loading next visibility...
Identifier
31428, 1999-025BTQ
Orbit
SSO
Country
Flag of CNCN / PRC
Related business
Manufacturer
Unknown
Mission
Spacecraft
Bus & Motor
Unknown
Mass
Unknown
Launch date (UTC)
1999-05-10 (27 years ago)
Launch vehicle
Unknown
Launch site
Taiyaun Space Center, China (TSC)
Object type
Payload
Rocket body
Debris
Shape & HBR
Unknown shape, 0.1 m
Radar Cross Section
Small (<0.1 m²)

Expand to show TLE details & history
Last TLE update: 1 day ago

TLE from 1 day ago
0 FENGYUN 1C DEB
1 31428U 99025BTQ 26150.44939095  .00003540  00000-0  10462-2 0  9997
2 31428  99.0522 137.0989 0063427  16.8047 135.8337 14.43003574999426
Epoch: 2026-05-30T10:47Z
TLE epoch observation values (Epoch: 2026-05-30T10:47:07.378Z)
Latitude
26.5342°
Longitude
-88.10858°
Altitude
784.402 km
Speed
7.447 km/s
True Right ascension
21h 26m 32s
True Declination
26° 23' 51"
Sunlit
Object was in daylight at epoch
Visualization orbit readout
Latitude
Unknown
Longitude
Unknown
Altitude
Unknown
Speed
Unknown
Apparent Right ascension
Unknown
Apparent Declination
Unknown
Sunlit
N/A
Visualization observer readout
Local Sidereal Time
20:14:48
Azimuth
Unknown
Elevation
Unknown
Doppler factor
Unknown
Orbital elements
Apogee altitude
790.921 km
Perigee altitude
700.552 km
Semi-major axis
7,123.874 km
Eccentricity
0.00634
Inclination
99.0522°
RAAN
137.0989°
Arg. of periapsis
16.8047°
True anomaly
136.33724°
Mean anomaly
135.8337°
Eccentric anomaly
136.08575°
Mean motion
3.60968 °/min
Orbital period
99.73 mins
BSTAR
0.0010462
Loading maneuver chart data...
Computing Atmospheric mass density...
Loading historical data...
Loading historical data...
Loading historical data...
Loading historical data...
Loading historical data...
Loading historical data...
Loading historical data...

Documentation

Showing up to 5 results
|